When you browse on this site, cookies collect data to enhance your experience and personalize the content and advertising you see.
Visit our Privacy Policy to learn more. By continuing to use the site, you agree to this use of cookies and data.
  • In Schweiz
  • Länderverzeichnis
  • Für 7 Tage
  • Wassertemperatur
  • Satellitenkarten
  • Wetterkarte
  • Widgets
  • user-avatar
    Anmelden

    Stündliche Wetter Lemgo

    Heute, 26 Mai, Sonntag

    Zeit Temperatur Niederschläge Wind Luftdruck Luftfeuchtigkeit
    00:00 +10°C° 0 mm 1 m/S 753 mmHg 92%
    01:00 +10°C° 0 mm 1 m/S 752 mmHg 93%
    02:00 +8°C° 0 mm 2 m/S 752 mmHg 94%
    03:00 +8°C° 0 mm 2 m/S 752 mmHg 94%
    04:00 +8°C° 0 mm 2 m/S 752 mmHg 95%
    05:00 +10°C° 0 mm 3 m/S 752 mmHg 91%
    06:00 +11°C° 0 mm 4 m/S 751 mmHg 87%
    07:00 +13°C° 0 mm 5 m/S 751 mmHg 83%
    08:00 +14°C° 0 mm 5 m/S 751 mmHg 77%
    09:00 +16°C° 0 mm 5 m/S 750 mmHg 71%
    10:00 +17°C° 0 mm 6 m/S 750 mmHg 66%
    11:00 +19°C° 0 mm 6 m/S 750 mmHg 64%
    12:00 +20°C° 0 mm 6 m/S 750 mmHg 63%
    13:00 +20°C° 0 mm 5 m/S 750 mmHg 64%
    14:00 +20°C° 0.1 mm 5 m/S 749 mmHg 68%
    15:00 +19°C° 0.1 mm 5 m/S 749 mmHg 72%
    16:00 +19°C° 0.1 mm 5 m/S 748 mmHg 76%
    17:00 +19°C° 0 mm 5 m/S 748 mmHg 77%
    18:00 +19°C° 0 mm 4 m/S 748 mmHg 78%
    19:00 +18°C° 0 mm 4 m/S 748 mmHg 79%
    20:00 +17°C° 0 mm 4 m/S 748 mmHg 80%
    21:00 +15°C° 0 mm 4 m/S 748 mmHg 82%
    22:00 +14°C° 0 mm 4 m/S 747 mmHg 84%
    23:00 +14°C° 0 mm 4 m/S 747 mmHg 85%

    Morgen, 27 Mai, Montag

    Zeit Temperatur Niederschläge Wind Luftdruck Luftfeuchtigkeit
    00:00 +14°C° 0 mm 5 m/S 747 mmHg 85%
    01:00 +13°C° 0 mm 5 m/S 747 mmHg 86%
    02:00 +13°C° 0.2 mm 5 m/S 747 mmHg 88%
    03:00 +13°C° 0.2 mm 5 m/S 746 mmHg 91%
    04:00 +13°C° 0.2 mm 4 m/S 746 mmHg 93%
    05:00 +13°C° 0.3 mm 4 m/S 746 mmHg 94%
    06:00 +13°C° 0.3 mm 3 m/S 746 mmHg 96%
    07:00 +13°C° 0.3 mm 3 m/S 746 mmHg 97%
    08:00 +13°C° 0.1 mm 3 m/S 747 mmHg 93%
    09:00 +14°C° 0.1 mm 3 m/S 747 mmHg 89%
    10:00 +16°C° 0.1 mm 3 m/S 747 mmHg 85%
    11:00 +17°C° 0 mm 3 m/S 747 mmHg 79%
    12:00 +17°C° 0 mm 4 m/S 747 mmHg 74%
    13:00 +18°C° 0 mm 4 m/S 747 mmHg 69%
    14:00 +18°C° 0.1 mm 4 m/S 747 mmHg 67%
    15:00 +19°C° 0.1 mm 4 m/S 747 mmHg 64%
    16:00 +19°C° 0.1 mm 4 m/S 746 mmHg 62%
    17:00 +18°C° 0.1 mm 4 m/S 746 mmHg 67%
    18:00 +17°C° 0.1 mm 3 m/S 746 mmHg 72%
    19:00 +16°C° 0.1 mm 3 m/S 746 mmHg 76%
    20:00 +14°C° 0 mm 2 m/S 746 mmHg 79%
    21:00 +13°C° 0 mm 1 m/S 746 mmHg 82%
    22:00 +12°C° 0 mm 1 m/S 747 mmHg 85%
    23:00 +11°C° 0 mm 1 m/S 746 mmHg 87%

    übermorgen, 28 Mai, Dienstag

    Zeit Temperatur Niederschläge Wind Luftdruck Luftfeuchtigkeit
    00:00 +9°C° 0 mm 0 m/S 746 mmHg 88%
    01:00 +8°C° 0 mm 0 m/S 746 mmHg 90%
    02:00 +8°C° 0 mm 0 m/S 746 mmHg 90%
    03:00 +8°C° 0 mm 0 m/S 746 mmHg 91%
    04:00 +8°C° 0 mm 1 m/S 746 mmHg 92%
    05:00 +10°C° 0 mm 1 m/S 746 mmHg 89%
    06:00 +11°C° 0 mm 1 m/S 746 mmHg 86%
    07:00 +12°C° 0 mm 1 m/S 746 mmHg 83%
    08:00 +12°C° 0.7 mm 1 m/S 746 mmHg 86%
    09:00 +12°C° 0.7 mm 2 m/S 746 mmHg 89%
    10:00 +12°C° 0.7 mm 2 m/S 746 mmHg 92%
    11:00 +13°C° 0.1 mm 2 m/S 746 mmHg 87%
    12:00 +14°C° 0.1 mm 2 m/S 746 mmHg 82%
    13:00 +15°C° 0.1 mm 2 m/S 747 mmHg 77%
    14:00 +14°C° 0.1 mm 3 m/S 747 mmHg 76%
    15:00 +14°C° 0.1 mm 3 m/S 747 mmHg 76%
    16:00 +14°C° 0.1 mm 3 m/S 747 mmHg 75%
    17:00 +14°C° 0.2 mm 3 m/S 748 mmHg 79%
    18:00 +13°C° 0.2 mm 3 m/S 748 mmHg 82%
    19:00 +12°C° 0.2 mm 3 m/S 749 mmHg 85%
    20:00 +11°C° 0 mm 3 m/S 749 mmHg 86%
    21:00 +9°C° 0 mm 3 m/S 750 mmHg 87%
    22:00 +7°C° 0 mm 3 m/S 751 mmHg 88%
    23:00 +5°C° 0 mm 3 m/S 751 mmHg 89%

    29 Mai, Mittwoch

    Zeit Temperatur Niederschläge Wind Luftdruck Luftfeuchtigkeit
    00:00 +5°C° 0 mm 2 m/S 751 mmHg 90%
    01:00 +4°C° 0 mm 2 m/S 752 mmHg 92%
    02:00 +5°C° 0 mm 1 m/S 752 mmHg 92%
    03:00 +5°C° 0 mm 1 m/S 752 mmHg 92%
    04:00 +4°C° 0 mm 1 m/S 753 mmHg 92%
    05:00 +6°C° 0 mm 1 m/S 753 mmHg 87%
    06:00 +7°C° 0 mm 1 m/S 753 mmHg 82%
    07:00 +9°C° 0 mm 1 m/S 754 mmHg 78%
    08:00 +10°C° 0 mm 2 m/S 754 mmHg 73%
    09:00 +12°C° 0 mm 2 m/S 754 mmHg 68%
    10:00 +14°C° 0 mm 2 m/S 754 mmHg 63%
    11:00 +15°C° 0 mm 2 m/S 754 mmHg 60%
    12:00 +16°C° 0 mm 2 m/S 754 mmHg 57%
    13:00 +18°C° 0 mm 2 m/S 753 mmHg 54%
    14:00 +18°C° 0 mm 2 m/S 753 mmHg 56%
    15:00 +18°C° 0 mm 2 m/S 753 mmHg 58%
    16:00 +18°C° 0 mm 2 m/S 753 mmHg 59%
    17:00 +17°C° 0.4 mm 2 m/S 752 mmHg 68%
    18:00 +16°C° 0.4 mm 3 m/S 752 mmHg 78%
    19:00 +14°C° 0.4 mm 3 m/S 752 mmHg 87%
    20:00 +13°C° 0 mm 3 m/S 752 mmHg 88%
    21:00 +12°C° 0 mm 3 m/S 752 mmHg 90%
    22:00 +12°C° 0 mm 3 m/S 752 mmHg 92%
    23:00 +12°C° 0 mm 3 m/S 752 mmHg 92%

    30 Mai, Donnerstag

    Zeit Temperatur Niederschläge Wind Luftdruck Luftfeuchtigkeit
    00:00 +11°C° 0 mm 3 m/S 752 mmHg 93%
    01:00 +11°C° 0 mm 3 m/S 752 mmHg 93%
    02:00 +11°C° 0.1 mm 3 m/S 751 mmHg 93%
    03:00 +11°C° 0.1 mm 3 m/S 751 mmHg 93%
    04:00 +11°C° 0.1 mm 3 m/S 751 mmHg 94%
    05:00 +11°C° 0.1 mm 3 m/S 751 mmHg 94%
    06:00 +12°C° 0.1 mm 4 m/S 751 mmHg 94%
    07:00 +12°C° 0.1 mm 4 m/S 751 mmHg 94%
    08:00 +13°C° 0.1 mm 4 m/S 752 mmHg 91%
    09:00 +14°C° 0.1 mm 4 m/S 752 mmHg 88%
    10:00 +15°C° 0.1 mm 4 m/S 752 mmHg 84%
    11:00 +17°C° 0.1 mm 4 m/S 752 mmHg 79%
    12:00 +17°C° 0.1 mm 5 m/S 752 mmHg 74%
    13:00 +19°C° 0.1 mm 5 m/S 752 mmHg 69%
    14:00 +19°C° 0 mm 5 m/S 752 mmHg 67%
    15:00 +20°C° 0 mm 4 m/S 752 mmHg 65%
    16:00 +20°C° 0 mm 4 m/S 752 mmHg 63%
    17:00 +19°C° 0.8 mm 4 m/S 752 mmHg 74%
    18:00 +16°C° 0.8 mm 5 m/S 752 mmHg 84%
    19:00 +15°C° 0.8 mm 5 m/S 751 mmHg 95%
    20:00 +14°C° 0.2 mm 5 m/S 751 mmHg 95%
    21:00 +14°C° 0.2 mm 5 m/S 751 mmHg 95%
    22:00 +14°C° 0.2 mm 5 m/S 751 mmHg 96%
    23:00 +14°C° 0.8 mm 5 m/S 751 mmHg 96%

    31 Mai, Freitag

    Zeit Temperatur Niederschläge Wind Luftdruck Luftfeuchtigkeit
    00:00 +14°C° 0.8 mm 5 m/S 751 mmHg 96%
    01:00 +14°C° 0.8 mm 5 m/S 751 mmHg 96%
    02:00 +11°C° 1.1 mm 6 m/S 752 mmHg 95%
    03:00 +10°C° 1.1 mm 7 m/S 752 mmHg 94%
    04:00 +8°C° 1.1 mm 7 m/S 753 mmHg 93%
    05:00 +8°C° 0 mm 7 m/S 755 mmHg 91%
    06:00 +8°C° 0 mm 6 m/S 756 mmHg 88%
    07:00 +8°C° 0 mm 5 m/S 757 mmHg 86%
    08:00 +9°C° 0 mm 5 m/S 758 mmHg 78%
    09:00 +10°C° 0 mm 5 m/S 759 mmHg 69%
    10:00 +12°C° 0 mm 5 m/S 759 mmHg 61%
    11:00 +13°C° 0 mm 5 m/S 760 mmHg 59%
    12:00 +14°C° 0 mm 5 m/S 760 mmHg 57%
    13:00 +14°C° 0 mm 5 m/S 761 mmHg 55%
    14:00 +14°C° 0 mm 5 m/S 761 mmHg 56%
    15:00 +14°C° 0 mm 5 m/S 761 mmHg 57%
    16:00 +14°C° 0 mm 5 m/S 762 mmHg 58%
    17:00 +14°C° 0 mm 4 m/S 762 mmHg 63%
    18:00 +13°C° 0 mm 3 m/S 762 mmHg 68%
    19:00 +12°C° 0 mm 3 m/S 762 mmHg 73%
    20:00 +12°C° 0 mm 2 m/S 763 mmHg 79%
    21:00 +9°C° 0 mm 2 m/S 763 mmHg 85%
    22:00 +7°C° 0 mm 2 m/S 763 mmHg 91%
    23:00 +7°C° 0 mm 1 m/S 764 mmHg 91%
    Mehr zeigen